When you browse on this site, cookies collect data to enhance your experience and personalize the content and advertising you see.
Visit our Privacy Policy to learn more. By continuing to use the site, you agree to this use of cookies and data.
  • In Hungary
  • List of Countries
  • For 7 days
  • Water Temperature
  • Weather Map
  • News
  • Weather Widgets
  • user-avatar
    Login

    Hourly Weather Shaminka

    Today, 14 October, Monday

    Time Temperature Precipitation Wind Pressure Humidity
    00:00 +12°C° 0 mm 4 mps 767 mmHg 68%
    01:00 +12°C° 0 mm 3 mps 767 mmHg 71%
    02:00 +12°C° 0 mm 3 mps 767 mmHg 74%
    03:00 +11°C° 0 mm 3 mps 767 mmHg 77%
    04:00 +11°C° 0 mm 3 mps 767 mmHg 79%
    05:00 +11°C° 0 mm 3 mps 767 mmHg 80%
    06:00 +12°C° 0 mm 2 mps 767 mmHg 82%
    07:00 +13°C° 0 mm 2 mps 767 mmHg 76%
    08:00 +15°C° 0 mm 2 mps 767 mmHg 70%
    09:00 +16°C° 0 mm 2 mps 768 mmHg 64%
    10:00 +18°C° 0 mm 2 mps 767 mmHg 59%
    11:00 +20°C° 0 mm 2 mps 767 mmHg 53%
    12:00 +23°C° 0 mm 2 mps 767 mmHg 47%
    13:00 +23°C° 0 mm 2 mps 767 mmHg 44%
    14:00 +24°C° 0 mm 2 mps 767 mmHg 42%
    15:00 +25°C° 0 mm 2 mps 767 mmHg 39%
    16:00 +23°C° 0 mm 2 mps 766 mmHg 44%
    17:00 +21°C° 0 mm 1 mps 766 mmHg 49%
    18:00 +20°C° 0 mm 1 mps 766 mmHg 54%
    19:00 +19°C° 0 mm 1 mps 766 mmHg 55%
    20:00 +19°C° 0 mm 1 mps 766 mmHg 57%
    21:00 +18°C° 0 mm 1 mps 766 mmHg 59%
    22:00 +18°C° 0 mm 1 mps 766 mmHg 61%
    23:00 +16°C° 0 mm 1 mps 766 mmHg 63%

    Tomorrow, 15 October, Tuesday

    Time Temperature Precipitation Wind Pressure Humidity
    00:00 +15°C° 0 mm 1 mps 765 mmHg 65%
    01:00 +15°C° 0 mm 1 mps 765 mmHg 66%
    02:00 +15°C° 0 mm 1 mps 765 mmHg 67%
    03:00 +14°C° 0 mm 1 mps 765 mmHg 68%
    04:00 +14°C° 0 mm 1 mps 765 mmHg 69%
    05:00 +14°C° 0 mm 1 mps 765 mmHg 69%
    06:00 +13°C° 0 mm 1 mps 764 mmHg 70%
    07:00 +15°C° 0 mm 1 mps 765 mmHg 65%
    08:00 +16°C° 0 mm 1 mps 765 mmHg 60%
    09:00 +19°C° 0 mm 1 mps 765 mmHg 54%
    10:00 +20°C° 0 mm 1 mps 765 mmHg 49%
    11:00 +22°C° 0 mm 1 mps 765 mmHg 43%
    12:00 +24°C° 0 mm 1 mps 764 mmHg 38%
    13:00 +24°C° 0 mm 1 mps 764 mmHg 36%
    14:00 +25°C° 0 mm 1 mps 764 mmHg 34%
    15:00 +25°C° 0 mm 1 mps 763 mmHg 32%
    16:00 +24°C° 0 mm 1 mps 763 mmHg 36%
    17:00 +22°C° 0 mm 1 mps 763 mmHg 41%
    18:00 +20°C° 0 mm 1 mps 763 mmHg 45%
    19:00 +19°C° 0 mm 1 mps 763 mmHg 47%
    20:00 +19°C° 0 mm 1 mps 763 mmHg 48%
    21:00 +18°C° 0 mm 1 mps 764 mmHg 50%
    22:00 +18°C° 0 mm 1 mps 764 mmHg 51%
    23:00 +16°C° 0 mm 1 mps 763 mmHg 53%

    Day after tomorrow, 16 October, Wednesday

    Time Temperature Precipitation Wind Pressure Humidity
    00:00 +16°C° 0 mm 1 mps 763 mmHg 54%
    01:00 +15°C° 0 mm 1 mps 764 mmHg 56%
    02:00 +15°C° 0 mm 1 mps 764 mmHg 59%
    03:00 +15°C° 0 mm 2 mps 764 mmHg 61%
    04:00 +14°C° 0 mm 2 mps 764 mmHg 64%
    05:00 +14°C° 0 mm 2 mps 764 mmHg 66%
    06:00 +13°C° 0 mm 2 mps 764 mmHg 69%
    07:00 +15°C° 0 mm 2 mps 764 mmHg 66%
    08:00 +16°C° 0 mm 2 mps 765 mmHg 63%
    09:00 +17°C° 0 mm 3 mps 765 mmHg 60%
    10:00 +19°C° 0 mm 3 mps 765 mmHg 55%
    11:00 +21°C° 0 mm 3 mps 765 mmHg 50%
    12:00 +23°C° 0 mm 4 mps 765 mmHg 45%
    13:00 +23°C° 0 mm 4 mps 764 mmHg 45%
    14:00 +23°C° 0 mm 4 mps 764 mmHg 45%
    15:00 +23°C° 0 mm 4 mps 764 mmHg 45%
    16:00 +21°C° 0 mm 4 mps 764 mmHg 52%
    17:00 +20°C° 0 mm 4 mps 764 mmHg 59%
    18:00 +18°C° 0 mm 4 mps 764 mmHg 66%
    19:00 +17°C° 0 mm 4 mps 765 mmHg 68%
    20:00 +17°C° 0 mm 4 mps 765 mmHg 70%
    21:00 +15°C° 0 mm 4 mps 765 mmHg 73%
    22:00 +15°C° 0 mm 4 mps 765 mmHg 73%
    23:00 +14°C° 0 mm 4 mps 765 mmHg 74%

    17 October, Thursday

    Time Temperature Precipitation Wind Pressure Humidity
    00:00 +14°C° 0 mm 4 mps 765 mmHg 75%
    01:00 +13°C° 0 mm 4 mps 765 mmHg 76%
    02:00 +13°C° 0 mm 4 mps 765 mmHg 76%
    03:00 +12°C° 0 mm 4 mps 765 mmHg 77%
    04:00 +12°C° 0 mm 4 mps 765 mmHg 77%
    05:00 +11°C° 0 mm 4 mps 765 mmHg 77%
    06:00 +11°C° 0 mm 4 mps 765 mmHg 77%
    07:00 +12°C° 0 mm 4 mps 765 mmHg 72%
    08:00 +13°C° 0 mm 4 mps 765 mmHg 67%
    09:00 +14°C° 0 mm 4 mps 765 mmHg 62%
    10:00 +17°C° 0 mm 4 mps 765 mmHg 56%
    11:00 +19°C° 0 mm 4 mps 765 mmHg 51%
    12:00 +21°C° 0 mm 4 mps 765 mmHg 45%
    13:00 +22°C° 0 mm 4 mps 764 mmHg 44%
    14:00 +22°C° 0 mm 4 mps 764 mmHg 43%
    15:00 +23°C° 0 mm 5 mps 763 mmHg 41%
    16:00 +21°C° 0 mm 4 mps 763 mmHg 47%
    17:00 +19°C° 0 mm 3 mps 763 mmHg 53%
    18:00 +18°C° 0 mm 3 mps 763 mmHg 58%
    19:00 +17°C° 0 mm 3 mps 763 mmHg 62%
    20:00 +16°C° 0 mm 3 mps 763 mmHg 65%
    21:00 +14°C° 0 mm 3 mps 763 mmHg 68%
    22:00 +14°C° 0 mm 3 mps 763 mmHg 70%
    23:00 +13°C° 0 mm 3 mps 763 mmHg 73%

    18 October, Friday

    Time Temperature Precipitation Wind Pressure Humidity
    00:00 +13°C° 0 mm 3 mps 762 mmHg 75%
    01:00 +12°C° 0 mm 3 mps 762 mmHg 77%
    02:00 +13°C° 0 mm 2 mps 762 mmHg 79%
    03:00 +13°C° 0 mm 2 mps 762 mmHg 81%
    04:00 +12°C° 0 mm 2 mps 762 mmHg 82%
    05:00 +12°C° 0 mm 2 mps 762 mmHg 83%
    06:00 +12°C° 0 mm 2 mps 762 mmHg 85%
    07:00 +13°C° 0 mm 2 mps 762 mmHg 79%
    08:00 +14°C° 0 mm 2 mps 762 mmHg 72%
    09:00 +15°C° 0 mm 2 mps 762 mmHg 66%
    10:00 +17°C° 0 mm 3 mps 762 mmHg 59%
    11:00 +19°C° 0 mm 3 mps 762 mmHg 52%
    12:00 +21°C° 0 mm 3 mps 762 mmHg 45%
    13:00 +22°C° 0 mm 3 mps 762 mmHg 42%
    14:00 +22°C° 0 mm 3 mps 761 mmHg 39%
    15:00 +24°C° 0 mm 3 mps 761 mmHg 36%
    16:00 +21°C° 0 mm 3 mps 761 mmHg 41%
    17:00 +19°C° 0 mm 3 mps 762 mmHg 46%
    18:00 +17°C° 0 mm 3 mps 762 mmHg 51%
    19:00 +17°C° 0 mm 2 mps 762 mmHg 54%
    20:00 +16°C° 0 mm 2 mps 762 mmHg 56%
    21:00 +15°C° 0 mm 2 mps 763 mmHg 58%
    22:00 +14°C° 0 mm 3 mps 763 mmHg 62%
    23:00 +13°C° 0 mm 3 mps 763 mmHg 65%

    19 October, Saturday

    Time Temperature Precipitation Wind Pressure Humidity
    00:00 +13°C° 0 mm 3 mps 763 mmHg 69%
    01:00 +13°C° 0 mm 4 mps 764 mmHg 75%
    02:00 +12°C° 0 mm 4 mps 764 mmHg 80%
    03:00 +12°C° 0 mm 4 mps 764 mmHg 86%
    04:00 +12°C° 0 mm 4 mps 765 mmHg 88%
    05:00 +11°C° 0 mm 4 mps 765 mmHg 90%
    06:00 +10°C° 0 mm 5 mps 765 mmHg 93%
    07:00 +12°C° 0 mm 5 mps 766 mmHg 88%
    08:00 +11°C° 0 mm 6 mps 766 mmHg 84%
    09:00 +13°C° 0 mm 6 mps 766 mmHg 80%
    10:00 +14°C° 0 mm 6 mps 767 mmHg 73%
    11:00 +14°C° 0 mm 6 mps 767 mmHg 66%
    12:00 +15°C° 0 mm 6 mps 767 mmHg 59%
    13:00 +16°C° 0 mm 6 mps 767 mmHg 56%
    14:00 +16°C° 0 mm 6 mps 766 mmHg 54%
    15:00 +17°C° 0 mm 6 mps 766 mmHg 51%
    16:00 +15°C° 0 mm 5 mps 766 mmHg 54%
    17:00 +14°C° 0 mm 5 mps 766 mmHg 57%
    18:00 +13°C° 0 mm 4 mps 766 mmHg 60%
    19:00 +12°C° 0 mm 4 mps 767 mmHg 60%
    20:00 +12°C° 0 mm 4 mps 767 mmHg 60%
    21:00 +10°C° 0 mm 5 mps 767 mmHg 61%
    22:00 +11°C° 0 mm 4 mps 767 mmHg 58%
    23:00 +10°C° 0 mm 4 mps 767 mmHg 56%
    Show more